Weather in Gorontalo

Indonesia     0°34′44″N   123°01′27″E
temp.,
°C
wind,
m/s
gust,
m/s
humid.,
%
clouds,
%
prec.,
mm/h
press.,
hPa
HPBL,
m
18 may, wed
wed1823:00+24nne2296100 6.1 101271
02:00+24nne2296100 9.8 101079
05:00+24nne1196100 3.2 101162
08:00+24n1194100 4.1 101356
11:00+27wnw1181100 0.4 1012293
14:00+26nw0090100 1.2 101071
17:00+25nne119298 0.9 101030
20:00+24ne119311 1.4 101263
19 may, thu
thu1923:00+24ne119413 0.0 101269
02:00+23nne119415 0.0 101057
05:00+23nne119492 0.0 101149
08:00+26nne118413 0.1 1013211
11:00+30s2368100 0.1 10121051
14:00+30sse336936 0.5 1009965
17:00+27sse1282100 0.6 1009227
20:00+25ne129366 1.8 101189
20 may, fri
fri2023:00+24nne119531 0.4 101263
02:00+23nne119563 0.4 100954
05:00+23nne119571 0.0 101057
08:00+26ne118480 0.0 1012274
11:00+30s236527 0.1 1010956
14:00+30s236739 0.3 1008898
17:00+28sse23775 0.2 1008271
20:00+25ese12876 0.2 1010171
21 may, sat
sat2123:00+24nne11936 0.1 101079
02:00+23nne119444 0.1 100960
05:00+23nne119297 0.2 100942
08:00+27ene117265 0.3 1011315
11:00+29ssw226699 0.1 1009710
14:00+27sse248359 1.3 1007392
17:00+27sse237737 0.9 1007371
20:00+24e129236 3.3 100996
22 may, sun
sun2223:00+24nne119367 1.1 100971
02:00+23nne119283 1.3 100856
05:00+23ne119066 0.1 100851
08:00+26ne118139 0.1 1010179
11:00+29s236431 0.5 1008931
14:00+29s336495 1.8 1007828
17:00+27s227996 0.9 1007221
20:00+25se228826 1.1 1009163